Regional Weather Roundup
Issued by NWS Upton, NY

Current Version | Previous Version | Graphics & Text | Print | Product List | Glossary Off
Versions: 1 2 3 4 5 6 7 8 9 10 11 12 13 14 15 16 17 18 19 20 21 22 23 24 25 26 27 28 29 30 31 32 33 34 35 36 37 38 39 40 41 42 43 44 45 46 47 48 49 50

000
ASUS41 KOKX 082204
RWROKX

REGIONAL WEATHER ROUNDUP
NATIONAL WEATHER SERVICE NEW YORK NY
500 PM EST MON FEB 08 2016

NOTE: "FAIR" INDICATES FEW OR NO CLOUDS BELOW 12,000 FEET WITH NO
SIGNIFICANT WEATHER AND/OR OBSTRUCTIONS TO VISIBILITY.

NYZ071-072-176-178-NJZ106-104-082300-
NEW YORK CITY METRO AREA


CITY           SKY/WX    TMP DP  RH WIND       PRES   REMARKS
CENTRAL PARK   CLOUDY    32  21  64 VRB7      29.77R WCI  26
LAGUARDIA APRT FLURRIES  32  23  69 NE8       29.75R WCI  25
KENNEDY INTL   FLURRIES  31  23  72 N10       29.77R WCI  22
NEWARK/LIBERTY CLOUDY    34  23  64 NE6       29.76R WCI  29
BRNX BOT. GARD   N/A     32  23  69 NE7       29.76S WCI  26
TETERBORO      CLOUDY    33  21  61 NE6       29.74R WCI  28
$$

NYZ177-179-078>081-082300-
LONG ISLAND NEW YORK

CITY           SKY/WX    TMP DP  RH WIND       PRES   REMARKS
FARMINGDALE    CLOUDY    28  22  78 NE17      29.73F WCI  16
ISLIP          LGT SNOW  27  22  81 NE14      29.71F WCI  16
SHIRLEY        LGT SNOW  26  23  88 N9        29.75R FOG     WCI  17
RIVERHEAD        N/A     27  21  80 E3        29.73S
WESTHAMPTON      N/A    N/A N/A N/A MISG      29.75R
EAST HAMPTON   LGT SNOW  24  21  87 N8G18     29.73R WCI  16
MONTAUK POINT    N/A     25  22  88 N15G23    29.73R WCI  13
$$

NYZ052-065-067-082300-
HUDSON VALLEY

CITY           SKY/WX    TMP DP  RH WIND       PRES   REMARKS
WHITE PLAINS   LGT SNOW  28  21  75 N10       29.71R FOG     WCI  19
NEWBURGH       FLURRIES  28  23  80 E12G23    29.74R WCI  18
MONTGOMERY     CLOUDY    31  19  61 E9        29.73R WCI  23
POUGHKEEPSIE   LGT SNOW  29  22  75 NE9       29.75F WCI  20
ALBANY         FLURRIES  28  12  51 E5        29.80R WCI  23
$$

NJZ001-105-106-008-010-013-015-019>022-104-082300-
NEW JERSEY

CITY           SKY/WX    TMP DP  RH WIND       PRES   REMARKS
NEWARK/LIBERTY CLOUDY    34  23  64 NE6       29.76R WCI  29
TETERBORO      CLOUDY    33  21  61 NE6       29.74R WCI  28
CALDWELL       CLOUDY    35  19  52 E7        29.75R WCI  29
MORRISTOWN     CLOUDY    36  21  55 NW5       29.75R WCI  32
SOMERVILLE     CLOUDY    38  17  42 E3        29.72R
SUSSEX         CLOUDY    33  13  43 NE6       29.73R WCI  28
ANDOVER          N/A     33  15  47 NE6       29.72R WCI  28
TRENTON        CLOUDY    37  23  56 E6        29.73R WCI  32
MILLVILLE      CLOUDY    41  28  60 E5        29.73R
ATLANTIC CITY  CLOUDY    36  27  69 E12       29.74R WCI  28
WRIGHTSTOWN    CLOUDY    35  30  80 N10       29.72R WCI  28
TOMS RIVER     CLOUDY    34  23  64 NE8       29.75S WCI  27
BELMAR         CLOUDY    34  19  55 N9        29.74R WCI  26
$$

PAZ047>061-062-071-082300-
EASTERN PENNSYLVANIA

CITY           SKY/WX    TMP DP  RH WIND       PRES   REMARKS
PHILADELPHIA   CLOUDY    42  25  50 E3        29.73S
ALLENTOWN      CLOUDY    39  22  50 NE7       29.71S WCI  34
SCRANTON       CLOUDY    39  20  46 VRB6      29.65F WCI  35
$$

CTZ002-004>006-009-010-012-RIZ004-006-007-MAZ004-011-015-082300-
SOUTHERN NEW ENGLAND
 IN CT

CITY           SKY/WX    TMP DP  RH WIND       PRES   REMARKS
BRADLEY INTL   LGT SNOW  24  19  81 N10       29.75S WCI  14
HARTFORD       LGT SNOW  25  20  81 N8        29.78R WCI  16
DANBURY        LGT SNOW  26  19  74 N6        29.75S WCI  19
WTRBRY/OXFORD  LGT SNOW  25  12  58 NE13      29.71F VSB 3/4 WCI  13
BRIDGEPORT     LGT SNOW  28  22  78 N15G22    29.75S WCI  16
MERIDEN        LGT SNOW  26  19  74 N12       29.76R WCI  16
NEW HAVEN      LGT SNOW  25  20  81 N14       29.75R WCI  13
CHESTER        LGT SNOW  25  21  86 N12G17    29.73R WCI  14
GROTON         LGT SNOW  24  21  88 N9        29.74R FOG     WCI  14
WILLIMANTIC    LGT SNOW  25  18  74 N7        29.74R WCI  17

 IN RI

CITY           SKY/WX    TMP DP  RH WIND       PRES   REMARKS
PROVIDENCE     LGT SNOW  22  17  81 N17       29.72R VSB 1   WCI   8
BLOCK ISLAND   CLOUDY    25  21  86 N16G28    29.69R WCI  12
WESTERLY       LGT SNOW  23  19  85 N12       29.73R VSB 3/4 WCI  12

 IN MA

CITY           SKY/WX    TMP DP  RH WIND       PRES   REMARKS
BOSTON         SNOW      21  15  78 N15G30    29.74R VSB 1/2 WCI   8
WORCESTER      LGT SNOW  19  14  81 N14G24    29.69R VSB 3/4 WCI   6
WESTFIELD      LGT SNOW  23  19  85 N12       29.76R VSB 3/4 WCI  12
PROVINCETOWN   LGT SNOW  31  28  89 N23G38    29.64R FOG     WCI  18
NANTUCKET      SNOW      34  31  88 N33G48    29.56R VSB 1/2 WCI  20
$$

ANZ330-335-338-340-345-350-353-355-082300-
COASTAL MARINE OBSERVATIONS


STATION/POSITION TIME  SKY/WX   TEMP    WIND        PRES    VSBY  WAVE
                                AIR SEA DIR/SP/G                  HT/PER
                 (UTC)          (F)     (DEG/KT/KT) (MB)    (MI)  (FT/S)
NY HARB ENTRANCE 2050            31 44   20/ 21/ 25 1005.3         13/12
4S FIRE IS       NOT AVBL
20S FIRE ISLAND  2050            30 45   10/ 21/ 25 1006.0         12/10
GREAT SOUTH BAY  NOT AVBL
23SW MTP         2150            29 46  360/ 23/ 29 1005.2         14/13
HUDSON CANYON    2050            35 50              1004.4         18/14
KINGS POINT      2100            29 39   80/ 11/ 17 1006.2
EXECUTION ROCKS  NOT AVBL
CENTRAL LI SOUND 2130            27     360/ 17/ 21   N/A           3/ 3
EASTERN LI SOUND 2115            26 42  360/ 16/ 21   N/A
ROBBINS REEF     2100            33      10/ 13/ 16 1006.0
$$


>>>>>>>>>>>>>>>>>>>>>>>>>>>> KEY <<<<<<<<<<<<<<<<<<<<<<<<<<<
>                                                          <
>     SKY/WX - SKY CONDITION/PRESENT WEATHER               <
>     TMP    - TEMPERATURE IN FAHRENHEIT                   <
>     DP     - DEWPOINT IN FAHRENHEIT                      <
>     RH     - RELATIVE HUMIDITY IN PERCENT                <
>     WIND   - DIRECTION AND SPEED IN MPH                  <
>     PRES   - MEAN SEA LEVEL PRESSURE IN INCHES OF HG     <
>     WCI    - WIND CHILL INDEX                            <
>     VSB    - VISIBILITY IN MILES                         <
>     HX     - HEAT INDEX                                  <
>     TC     - TEMPERATURE IN CELSIUS                      <
>     VRB    - VARIABLE WIND DIRECTION                     <
>                                                          <
>>>>>>>>>>>>>>>>>>>>>>>>>>>> KEY <<<<<<<<<<<<<<<<<<<<<<<<<<<





USA.gov is the U.S. government's official web portal to all federal, state and local government web resources and services.